SCP
0 0 0 0 0 -0 -0 -0 0 0 0 -0 -0 -0 -0 -0 -0 -0 -0 -0 -0 -0 -0 -0 -0 -0 -0 -0 -0 -0 0 0 -0 -0 -0 0 0 0 0 0 0 -0 0
0 0 0 0 0 0 -0 0 0 0 0 -0 -0 -0 -0 -0 -0 -0 -0 -0 -0 -0 -0 -0 -0 0 -0 -0 0 0 0 -0 -0 -0 0 -0 0 0 0 0 0 -0 0
0 0 0 0 0 0 -0 0 0 -0 -0 -0 -0 -0 -0 -0 -0 -0 -0 -0 -0 -0 -0 -0 -0 0 -0 -0 -0 -0 -0 -0 -0 -0 0 0 0 0 0 0 0 0 0
0 0 0 0 0 0 0 0 0 -0 -0 -0 -0 -0 -0 -0 -0 -0 -0 -0 -0 -0 -0 -0 -0 0 -0 -0 -0 -0 -0 -0 0 0 0 0 0 0 0 0 -0 -0 -0
0 0 0 0 0 0 0 0 0 0 -0 -0 -0 -0 -0 -0 -0 -0 -0 -0 -0 -0 -0 0 0 -0 -0 -0 -0 -0 -0 -0 0 0 -0 -0 0 -0 -0 -0 0 -0 -0
0 0 0 0 0 0 0 0 0 0 -0 -0 -0 -0 -0 -0 -0 -0 -0 -0 -0 0 0 0 0 0 -0 -0 -0 -0 -0 -0 -0 -0 -0 -0 0 -0 -0 -0 0 0 0
0 0 0 0 0 0 0 0 0 0 0 -0 -0 -0 -0 -0 -0 -0 -0 0 0 0 0 0 0 -0 -0 -0 -0 -0 -0 -0 -0 -0 -0 -0 0 -0 -0 0 0 0 0
0 0 0 0 0 0 0 0 0 0 0 0 0 0 0 -0 -0 -0 0 0 0 0 0 0 -0 -0 -0 -0 -0 -0 -0 -0 -0 -0 -0 0 -0 0 0 0 0 0 0
0 0 0 0 0 0 0 0 0 0 0 0 0 0 0 0 0 0 0 0 0 0 0 0 -0 -0 -0 -0 -0 -0 -0 -0 0 0 0 0 0 0 0 0 0 0 0
0 0 0 0 0 0 0 0 0 0 0 0 0 0 0 0 0 0 0 0 0 0 -0 -0 -0 -0 -0 -0 -0 -0 -0 -0 0 0 0 0 0 0 0 0 0 0 0
0 0 0 0 0 0 0 0 0 0 0 0 0 0 0 0 0 0 0 0 0 -0 -0 -0 -0 -0 -0 -0 -0 -0 -0 0 0 0 0 0 0 0 0 0 0 0 0
0 0 0 0 0 0 0 0 0 0 0 0 0 0 0 0 0 0 -0 -0 -0 -0 -0 -0 -0 -0 -0 -0 -0 -0 0 0 0 0 0 0 0 0 0 0 0 0 0
0 0 0 0 0 0 0 0 0 0 0 0 0 0 0 0 0 0 0 0 0 0 0 -0 -0 0 0 0 0 0 0 0 0 0 0 0 0 0 0 0 0 0 0
0 0 0 0 0 0 0 0 0 0 0 0 0 0 0 0 0 0 0 0 0 0 0 0 0 0 0 0 0 0 0 0 0 0 0 0 0 0 0 0 0 0 0
0 0 0 0 0 0 0 0 0 0 0 0 0 0 0 0 0 0 0 0 0 0 0 0 0 0 0 0 0 0 0 0 0 0 0 0 0 0 0 0 0 0 0
0 0 0 0 0 0 0 0 0 0 0 0 0 0 0 0 0 0 0 0 0 0 0 0 0 0 0 0 0 0 0 0 0 0 0 0 0 0 0 0 0 0 0
0 0 0 0 0 0 0 0 0 0 0 0 0 0 0 0 0 0 0 0 0 0 0 0 0 0 0 0 0 0 0 0 0 0 0 0 0 0 0 0 0 0 0
0 0 0 0 0 0 0 0 0 0 0 0 0 0 0 0 0 0 0 0 0 0 0 0 0 0 0 0 0 0 0 0 0 0 0 0 0 0 0 0 0 0 0
0 0 0 0 0 0 0 0 0 0 0 0 0 0 0 0 0 0 0 0 0 0 0 0 0 0 0 0 0 0 0 0 0 0 0 0 0 0 0 0 0 0 0
0 0 0 0 0 0 0 0 0 0 0 0 0 0 0 0 0 0 0 0 0 0 0 0 0 0 0 0 0 0 0 0 0 0 0 0 0 0 0 0 0 0 0
0 0 0 0 0 0 0 0 0 0 0 0 0 0 0 0 0 0 0 0 0 0 0 0 0 0 0 0 0 0 0 0 0 0 0 0 0 0 0 0 0 0 0
0 0 0 0 0 0 0 0 0 0 0 0 0 0 0 0 0 0 0 0 0 0 0 0 0 0 0 0 0 0 0 0 0 0 0 0 0 0 0 0 0 0 0
0 0 0 0 0 0 0 0 0 0 0 0 0 0 0 0 0 0 0 0 0 0 0 0 0 0 0 0 0 0 0 0 0 0 0 0 0 0 0 0 0 0 0
0 0 0 0 0 0 0 0 0 0 0 0 0 0 0 0 0 0 0 0 0 0 0 0 0 0 0 0 0 0 0 0 0 0 0 0 0 0 0 0 0 0 0
0 0 0 0 0 0 0 0 0 0 0 0 0 0 0 0 0 0 0 0 0 0 0 0 0 0 0 0 0 0 0 0 0 0 0 0 0 0 0 0 0 0 0
0 0 0 0 0 0 0 0 0 0 0 0 0 0 0 0 0 0 0 0 0 0 0 0 0 0 0 0 0 0 0 0 0 0 0 0 0 0 0 0 0 0 0
Wind_Speed_500mb
55 56 53 45 41 35 38 41 38 41 33 33 31 25 21 19 16 13 8 11 19 14 21 19 18 17 15 15 16 18 18 17 19 22 24 25 23 21 18 15 13 13 12
57 58 57 50 44 38 41 44 37 35 29 28 26 25 21 19 17 14 12 16 20 17 21 24 23 21 19 19 17 16 15 18 18 19 21 23 21 20 19 17 16 16 15
54 59 60 55 47 40 41 42 34 31 27 25 23 21 19 17 17 17 16 16 20 17 19 22 23 21 19 17 14 12 13 15 16 16 15 17 19 18 17 16 16 16 16
53 58 60 57 49 45 45 39 34 29 24 21 18 17 18 18 19 20 18 17 17 16 16 17 18 17 16 14 12 10 8 9 11 12 15 16 16 17 19 18 18 17 17
53 53 55 51 48 49 46 41 36 28 22 17 16 18 20 19 19 19 18 17 16 14 14 13 13 12 11 10 9 8 6 8 9 11 13 14 15 14 18 20 19 18 18
52 51 52 52 49 51 48 43 36 28 21 18 18 20 19 19 19 18 17 16 14 13 11 10 9 8 7 7 6 6 6 8 9 10 11 12 12 12 16 20 21 21 21
54 53 53 53 52 51 48 42 36 28 22 20 19 18 17 21 19 19 17 15 12 9 8 6 5 5 5 5 5 6 7 9 11 11 9 11 11 12 16 21 22 23 23
55 55 54 55 53 49 46 41 35 28 24 22 20 17 15 19 18 17 15 12 7 6 4 2 2 3 4 5 6 7 9 9 8 8 11 11 11 12 15 21 23 24 24
55 56 55 56 52 47 42 39 33 28 25 22 20 18 17 17 16 15 12 8 5 3 1 2 3 3 4 6 8 7 9 9 8 11 13 11 11 12 16 22 28 27 24
57 56 57 55 52 49 44 39 32 27 24 22 20 19 19 17 14 12 10 7 4 2 3 4 4 4 5 7 6 8 10 11 12 14 15 14 14 14 17 22 28 36 23
61 61 61 57 54 51 46 41 32 27 23 22 22 21 19 18 15 13 11 9 5 4 5 5 6 7 7 7 6 9 12 14 16 18 19 19 20 21 20 20 23 29 32
73 70 65 61 57 53 48 42 35 29 25 23 23 22 19 17 17 14 12 10 7 6 8 8 8 8 7 8 10 13 15 17 20 22 22 21 22 22 22 22 21 27 29
74 71 67 63 57 53 47 40 35 31 28 23 23 21 20 20 19 18 14 11 10 11 9 9 9 9 10 11 12 16 18 20 20 20 19 18 20 22 19 20 24 24 29
73 69 67 65 61 55 48 43 37 34 30 26 21 23 22 20 18 16 15 15 13 11 11 12 11 12 12 14 16 20 21 20 23 24 23 22 21 18 20 19 26 30 28
68 66 64 65 63 56 53 47 42 37 34 28 26 24 22 20 17 16 15 17 14 15 14 15 15 15 16 18 21 25 22 21 23 23 21 21 22 23 26 23 29 31 27
62 60 56 64 61 55 53 49 44 39 35 32 29 24 22 19 17 18 18 18 17 18 19 20 19 19 20 22 25 22 20 21 25 26 25 24 23 25 29 19 25 25 30
57 51 49 55 59 54 48 46 41 35 32 28 28 25 22 20 19 21 22 22 21 24 24 25 23 24 25 26 29 25 24 26 30 33 29 27 26 25 26 18 25 28 29
54 53 45 48 50 49 45 41 40 34 30 27 27 26 24 21 21 25 28 28 27 29 30 30 28 30 31 31 32 29 29 31 35 37 32 29 26 23 26 24 22 24 24
56 48 48 46 48 45 41 43 40 38 37 31 29 28 26 25 26 30 30 29 29 32 33 34 33 33 32 30 34 40 34 36 42 38 32 25 20 20 23 16 18 19 16
57 52 45 43 42 41 40 41 47 46 44 42 36 33 30 30 32 35 34 31 31 33 33 34 35 33 34 36 38 42 41 43 42 31 31 22 16 19 16 16 16 15 16
59 57 54 47 40 42 43 45 49 52 47 48 43 37 35 37 36 39 39 34 32 34 33 33 36 37 35 41 41 44 42 37 36 20 16 9 10 11 13 14 15 15 14
50 52 60 54 43 41 41 41 43 40 40 38 36 36 34 33 35 36 37 38 36 38 40 38 36 38 39 42 45 41 25 28 21 15 24 14 12 12 14 14 16 17 18
60 44 47 52 46 42 40 39 40 39 41 40 36 38 37 37 37 40 38 38 38 40 42 41 40 41 44 44 44 40 11 9 17 26 16 16 16 16 19 19 19 20 22
58 43 47 51 51 51 49 48 48 44 40 32 35 35 33 32 32 35 38 40 40 42 43 42 40 42 45 45 46 42 33 29 21 15 17 18 19 21 22 23 24 25 26
21 32 36 39 45 46 44 45 46 48 40 34 38 39 40 40 40 38 39 40 41 35 34 36 40 41 40 41 37 31 29 31 33 35 32 29 28 25 27 27 30 29 28
6 10 22 26 26 30 29 34 38 49 48 52 46 40 43 41 38 36 38 38 40 41 38 40 42 38 35 34 34 34 34 30 32 29 35 36 32 25 30 30 32 31 32
Wind_Direction_500mb
176 176 167 175 172 166 158 149 151 156 148 156 158 161 163 176 195 212 205 138 137 124 104 110 126 121 109 102 94 88 81 79 73 70 66 64 59 53 49 43 35 34 25
168 176 171 175 180 172 163 159 154 160 166 171 176 183 194 204 205 198 170 147 133 112 107 108 118 116 111 103 96 87 76 72 72 73 65 60 55 52 47 40 34 27 20
173 173 174 179 183 174 167 168 169 169 176 179 185 192 193 188 176 165 154 139 145 121 109 105 109 113 107 99 92 76 58 43 42 53 59 51 45 36 30 25 20 16 13
174 174 179 181 182 173 170 171 171 172 176 181 187 185 175 166 157 151 144 137 132 127 115 109 105 102 99 94 86 76 54 45 26 25 26 30 36 18 13 9 7 2 356
175 177 178 178 179 173 172 172 173 178 182 184 180 173 163 158 153 149 145 141 138 128 118 111 103 97 92 84 74 61 36 7 1 2 9 13 13 11 2 2 358 352 349
175 177 174 176 178 173 177 180 184 190 194 186 177 171 165 162 158 156 153 147 139 131 120 109 99 87 74 64 54 36 11 351 348 346 354 358 5 16 4 359 354 351 346
175 175 173 175 173 175 178 182 189 197 195 187 179 171 172 179 169 163 160 151 143 137 127 117 99 76 60 50 38 19 1 348 342 340 355 358 6 10 11 360 352 346 338
178 173 173 175 176 177 183 189 193 192 192 188 183 178 175 173 170 159 159 155 150 147 142 142 73 44 36 29 13 6 358 348 351 3 353 352 351 352 357 353 345 339 334
183 175 175 177 179 182 189 192 192 192 193 191 186 189 187 172 176 171 170 173 179 183 226 331 355 16 16 5 356 355 0 13 9 355 345 341 338 336 344 347 344 339 332
184 181 179 180 187 189 191 194 196 196 196 198 194 195 196 198 198 192 193 203 214 244 289 313 334 342 335 335 356 358 354 351 343 335 333 326 326 325 331 345 337 336 332
187 189 185 185 187 190 194 196 199 200 203 206 205 202 200 201 203 208 212 216 225 250 273 292 305 306 311 325 334 339 334 329 325 321 320 317 319 322 328 324 324 327 340
188 192 192 192 191 194 199 201 203 204 207 209 209 209 208 206 207 207 211 210 222 253 275 278 287 289 305 314 319 322 322 326 328 327 324 325 321 329 326 326 326 319 324
192 196 195 197 197 199 201 204 206 208 209 210 212 209 210 214 220 222 229 230 254 271 274 280 290 293 302 302 309 317 324 334 341 339 336 334 327 320 324 329 322 312 306
194 198 198 199 201 203 206 210 215 215 213 212 210 212 218 224 230 235 245 252 268 277 273 286 293 294 296 300 308 321 327 335 338 336 334 322 311 308 311 316 315 299 307
196 197 202 202 205 207 209 213 218 217 218 220 221 221 225 231 237 248 255 261 271 274 278 282 286 288 291 298 307 317 332 337 331 330 324 326 318 307 297 294 300 304 308
203 202 206 209 208 212 216 218 220 219 218 222 223 222 227 236 246 257 263 271 274 278 275 277 280 281 284 293 302 309 317 322 320 316 309 304 301 302 314 307 297 302 306
206 208 208 207 212 215 219 223 219 214 213 218 219 221 228 237 249 261 267 271 275 273 272 277 281 282 284 291 296 303 307 313 317 313 303 297 294 294 303 296 294 296 304
209 210 213 211 214 218 220 218 218 216 222 227 222 227 238 246 256 264 270 273 273 271 273 276 280 280 282 287 295 303 298 305 313 309 302 291 284 286 297 283 278 297 306
216 216 218 219 221 222 224 226 228 231 235 236 237 240 246 256 265 269 271 272 271 271 270 273 274 276 282 289 295 298 303 310 314 304 300 288 280 291 289 269 295 303 311
222 225 227 229 226 225 232 239 235 234 240 242 243 246 253 259 265 268 268 268 268 269 269 270 272 272 279 284 287 294 309 311 314 307 297 290 271 272 272 287 306 310 319
219 228 230 229 227 224 227 229 228 234 239 242 246 253 256 261 262 261 261 261 261 267 273 273 272 273 274 276 286 286 294 303 312 318 328 303 267 253 282 297 303 311 314
219 228 228 230 231 230 231 234 236 241 245 249 253 259 267 262 259 263 264 268 269 270 271 273 274 278 272 274 273 283 295 302 301 299 304 271 263 264 284 288 292 304 309
222 238 225 228 233 233 241 240 238 239 243 246 251 253 255 263 265 267 268 268 269 269 272 275 274 274 276 279 277 274 262 245 303 306 299 250 247 263 275 281 286 295 301
223 228 223 227 230 232 233 236 236 240 245 254 253 261 267 261 261 263 265 266 269 270 271 274 277 276 277 279 281 279 274 274 290 290 276 255 247 246 253 266 273 284 288
219 233 232 235 242 243 249 249 245 245 251 254 262 263 265 264 267 265 264 266 267 268 272 271 271 275 277 280 280 281 288 282 279 271 275 259 258 246 248 256 268 271 279
289 242 237 256 257 266 253 257 268 259 258 259 258 262 262 263 262 261 263 262 266 271 270 264 266 269 275 270 275 274 276 280 273 275 276 270 249 242 246 253 261 263 275
Wind_Speed_850mb
55 56 53 45 41 35 38 41 38 41 33 33 31 25 21 19 16 13 8 11 19 14 21 19 18 17 15 15 16 18 18 17 19 22 24 25 23 21 18 15 13 13 12
57 58 57 50 44 38 41 44 37 35 29 28 26 25 21 19 17 14 12 16 20 17 21 24 23 21 19 19 17 16 15 18 18 19 21 23 21 20 19 17 16 16 15
54 59 60 55 47 40 41 42 34 31 27 25 23 21 19 17 17 17 16 16 20 17 19 22 23 21 19 17 14 12 13 15 16 16 15 17 19 18 17 16 16 16 16
53 58 60 57 49 45 45 39 34 29 24 21 18 17 18 18 19 20 18 17 17 16 16 17 18 17 16 14 12 10 8 9 11 12 15 16 16 17 19 18 18 17 17
53 53 55 51 48 49 46 41 36 28 22 17 16 18 20 19 19 19 18 17 16 14 14 13 13 12 11 10 9 8 6 8 9 11 13 14 15 14 18 20 19 18 18
52 51 52 52 49 51 48 43 36 28 21 18 18 20 19 19 19 18 17 16 14 13 11 10 9 8 7 7 6 6 6 8 9 10 11 12 12 12 16 20 21 21 21
54 53 53 53 52 51 48 42 36 28 22 20 19 18 17 21 19 19 17 15 12 9 8 6 5 5 5 5 5 6 7 9 11 11 9 11 11 12 16 21 22 23 23
55 55 54 55 53 49 46 41 35 28 24 22 20 17 15 19 18 17 15 12 7 6 4 2 2 3 4 5 6 7 9 9 8 8 11 11 11 12 15 21 23 24 24
55 56 55 56 52 47 42 39 33 28 25 22 20 18 17 17 16 15 12 8 5 3 1 2 3 3 4 6 8 7 9 9 8 11 13 11 11 12 16 22 28 27 24
57 56 57 55 52 49 44 39 32 27 24 22 20 19 19 17 14 12 10 7 4 2 3 4 4 4 5 7 6 8 10 11 12 14 15 14 14 14 17 22 28 36 23
61 61 61 57 54 51 46 41 32 27 23 22 22 21 19 18 15 13 11 9 5 4 5 5 6 7 7 7 6 9 12 14 16 18 19 19 20 21 20 20 23 29 32
73 70 65 61 57 53 48 42 35 29 25 23 23 22 19 17 17 14 12 10 7 6 8 8 8 8 7 8 10 13 15 17 20 22 22 21 22 22 22 22 21 27 29
74 71 67 63 57 53 47 40 35 31 28 23 23 21 20 20 19 18 14 11 10 11 9 9 9 9 10 11 12 16 18 20 20 20 19 18 20 22 19 20 24 24 29
73 69 67 65 61 55 48 43 37 34 30 26 21 23 22 20 18 16 15 15 13 11 11 12 11 12 12 14 16 20 21 20 23 24 23 22 21 18 20 19 26 30 28
68 66 64 65 63 56 53 47 42 37 34 28 26 24 22 20 17 16 15 17 14 15 14 15 15 15 16 18 21 25 22 21 23 23 21 21 22 23 26 23 29 31 27
62 60 56 64 61 55 53 49 44 39 35 32 29 24 22 19 17 18 18 18 17 18 19 20 19 19 20 22 25 22 20 21 25 26 25 24 23 25 29 19 25 25 30
57 51 49 55 59 54 48 46 41 35 32 28 28 25 22 20 19 21 22 22 21 24 24 25 23 24 25 26 29 25 24 26 30 33 29 27 26 25 26 18 25 28 29
54 53 45 48 50 49 45 41 40 34 30 27 27 26 24 21 21 25 28 28 27 29 30 30 28 30 31 31 32 29 29 31 35 37 32 29 26 23 26 24 22 24 24
56 48 48 46 48 45 41 43 40 38 37 31 29 28 26 25 26 30 30 29 29 32 33 34 33 33 32 30 34 40 34 36 42 38 32 25 20 20 23 16 18 19 16
57 52 45 43 42 41 40 41 47 46 44 42 36 33 30 30 32 35 34 31 31 33 33 34 35 33 34 36 38 42 41 43 42 31 31 22 16 19 16 16 16 15 16
59 57 54 47 40 42 43 45 49 52 47 48 43 37 35 37 36 39 39 34 32 34 33 33 36 37 35 41 41 44 42 37 36 20 16 9 10 11 13 14 15 15 14
50 52 60 54 43 41 41 41 43 40 40 38 36 36 34 33 35 36 37 38 36 38 40 38 36 38 39 42 45 41 25 28 21 15 24 14 12 12 14 14 16 17 18
60 44 47 52 46 42 40 39 40 39 41 40 36 38 37 37 37 40 38 38 38 40 42 41 40 41 44 44 44 40 11 9 17 26 16 16 16 16 19 19 19 20 22
58 43 47 51 51 51 49 48 48 44 40 32 35 35 33 32 32 35 38 40 40 42 43 42 40 42 45 45 46 42 33 29 21 15 17 18 19 21 22 23 24 25 26
21 32 36 39 45 46 44 45 46 48 40 34 38 39 40 40 40 38 39 40 41 35 34 36 40 41 40 41 37 31 29 31 33 35 32 29 28 25 27 27 30 29 28
6 10 22 26 26 30 29 34 38 49 48 52 46 40 43 41 38 36 38 38 40 41 38 40 42 38 35 34 34 34 34 30 32 29 35 36 32 25 30 30 32 31 32
Wind_Direction_850mb
176 176 167 175 172 166 158 149 151 156 148 156 158 161 163 176 195 212 205 138 137 124 104 110 126 121 109 102 94 88 81 79 73 70 66 64 59 53 49 43 35 34 25
168 176 171 175 180 172 163 159 154 160 166 171 176 183 194 204 205 198 170 147 133 112 107 108 118 116 111 103 96 87 76 72 72 73 65 60 55 52 47 40 34 27 20
173 173 174 179 183 174 167 168 169 169 176 179 185 192 193 188 176 165 154 139 145 121 109 105 109 113 107 99 92 76 58 43 42 53 59 51 45 36 30 25 20 16 13
174 174 179 181 182 173 170 171 171 172 176 181 187 185 175 166 157 151 144 137 132 127 115 109 105 102 99 94 86 76 54 45 26 25 26 30 36 18 13 9 7 2 356
175 177 178 178 179 173 172 172 173 178 182 184 180 173 163 158 153 149 145 141 138 128 118 111 103 97 92 84 74 61 36 7 1 2 9 13 13 11 2 2 358 352 349
175 177 174 176 178 173 177 180 184 190 194 186 177 171 165 162 158 156 153 147 139 131 120 109 99 87 74 64 54 36 11 351 348 346 354 358 5 16 4 359 354 351 346
175 175 173 175 173 175 178 182 189 197 195 187 179 171 172 179 169 163 160 151 143 137 127 117 99 76 60 50 38 19 1 348 342 340 355 358 6 10 11 360 352 346 338
178 173 173 175 176 177 183 189 193 192 192 188 183 178 175 173 170 159 159 155 150 147 142 142 73 44 36 29 13 6 358 348 351 3 353 352 351 352 357 353 345 339 334
183 175 175 177 179 182 189 192 192 192 193 191 186 189 187 172 176 171 170 173 179 183 226 331 355 16 16 5 356 355 0 13 9 355 345 341 338 336 344 347 344 339 332
184 181 179 180 187 189 191 194 196 196 196 198 194 195 196 198 198 192 193 203 214 244 289 313 334 342 335 335 356 358 354 351 343 335 333 326 326 325 331 345 337 336 332
187 189 185 185 187 190 194 196 199 200 203 206 205 202 200 201 203 208 212 216 225 250 273 292 305 306 311 325 334 339 334 329 325 321 320 317 319 322 328 324 324 327 340
188 192 192 192 191 194 199 201 203 204 207 209 209 209 208 206 207 207 211 210 222 253 275 278 287 289 305 314 319 322 322 326 328 327 324 325 321 329 326 326 326 319 324
192 196 195 197 197 199 201 204 206 208 209 210 212 209 210 214 220 222 229 230 254 271 274 280 290 293 302 302 309 317 324 334 341 339 336 334 327 320 324 329 322 312 306
194 198 198 199 201 203 206 210 215 215 213 212 210 212 218 224 230 235 245 252 268 277 273 286 293 294 296 300 308 321 327 335 338 336 334 322 311 308 311 316 315 299 307
196 197 202 202 205 207 209 213 218 217 218 220 221 221 225 231 237 248 255 261 271 274 278 282 286 288 291 298 307 317 332 337 331 330 324 326 318 307 297 294 300 304 308
203 202 206 209 208 212 216 218 220 219 218 222 223 222 227 236 246 257 263 271 274 278 275 277 280 281 284 293 302 309 317 322 320 316 309 304 301 302 314 307 297 302 306
206 208 208 207 212 215 219 223 219 214 213 218 219 221 228 237 249 261 267 271 275 273 272 277 281 282 284 291 296 303 307 313 317 313 303 297 294 294 303 296 294 296 304
209 210 213 211 214 218 220 218 218 216 222 227 222 227 238 246 256 264 270 273 273 271 273 276 280 280 282 287 295 303 298 305 313 309 302 291 284 286 297 283 278 297 306
216 216 218 219 221 222 224 226 228 231 235 236 237 240 246 256 265 269 271 272 271 271 270 273 274 276 282 289 295 298 303 310 314 304 300 288 280 291 289 269 295 303 311
222 225 227 229 226 225 232 239 235 234 240 242 243 246 253 259 265 268 268 268 268 269 269 270 272 272 279 284 287 294 309 311 314 307 297 290 271 272 272 287 306 310 319
219 228 230 229 227 224 227 229 228 234 239 242 246 253 256 261 262 261 261 261 261 267 273 273 272 273 274 276 286 286 294 303 312 318 328 303 267 253 282 297 303 311 314
219 228 228 230 231 230 231 234 236 241 245 249 253 259 267 262 259 263 264 268 269 270 271 273 274 278 272 274 273 283 295 302 301 299 304 271 263 264 284 288 292 304 309
222 238 225 228 233 233 241 240 238 239 243 246 251 253 255 263 265 267 268 268 269 269 272 275 274 274 276 279 277 274 262 245 303 306 299 250 247 263 275 281 286 295 301
223 228 223 227 230 232 233 236 236 240 245 254 253 261 267 261 261 263 265 266 269 270 271 274 277 276 277 279 281 279 274 274 290 290 276 255 247 246 253 266 273 284 288
219 233 232 235 242 243 249 249 245 245 251 254 262 263 265 264 267 265 264 266 267 268 272 271 271 275 277 280 280 281 288 282 279 271 275 259 258 246 248 256 268 271 279
289 242 237 256 257 266 253 257 268 259 258 259 258 262 262 263 262 261 263 262 266 271 270 264 266 269 275 270 275 274 276 280 273 275 276 270 249 242 246 253 261 263 275